STARLINK-1784, 46687

Orbit data source: Space-Track

STARLINK-1784, 46687 is a payload satellite owned by SpaceX/Seattle (US) in LEO that was launched on Sun, 18 Oct 2020 UTC via an FALCON 9 launch vehicle from the Air Force Eastern Test Range (AFETR). Payload-class satellites include a variety of spacecraft equipped with specific instruments for various scientific and technological missions. These include communications satellites like Starlink; space stations such as the ISS; scientific satellites like the Hubble; Earth observation satellites from companies like Planet Labs, Umbra, and HawkEye 360; GPS; miniature CubeSats for education and research; and military/defense satellites.

Loading next visibility...
Identifier
46687, 2020-073T
Orbit
LEO
Country
Flag of USUS
Related business
Manufacturer
SpaceX/Seattle
Mission
Operational Commercial Communications
Bus & Motor
STARLINK, Unknown motor
Mass
260 kg wet, ~248 kg dry
Launch date (UTC)
2020-10-18 (5 years ago)
Launch vehicle
FALCON 9
Launch site
Air Force Eastern Test Range (AFETR)
Object type
Payload
Rocket body
Debris
Shape & HBR
Box + 1 Pan, 10.1 m
Radar Cross Section
13.562 m², Large (>1 m²)

Expand to show TLE details & history
Last TLE update: 19 hours ago

TLE from 19 hours ago
0 STARLINK-1784
1 46687U 20073T   25287.89519046  .00003137  00000-0  22947-3 0  9990
2 46687  53.0492 156.1140 0001644  87.3639 272.7538 15.06387804275432
Epoch: 2025-10-14T21:29Z
TLE epoch observation values (Epoch: 2025-10-14T21:29:04.455Z)
Latitude
-0.00004°
Longitude
170.16835°
Altitude
548.073 km
Speed
7.589 km/s
True Right ascension
10h 24m 27s
True Declination
0° 00' 00"
Sunlit
Object was in daylight at epoch
Visualization orbit readout
Latitude
Unknown
Longitude
Unknown
Altitude
Unknown
Speed
Unknown
Apparent Right ascension
Unknown
Apparent Declination
Unknown
Sunlit
N/A
Visualization observer readout
Local Sidereal Time
11:12:56
Azimuth
Unknown
Elevation
Unknown
Doppler factor
Unknown
Orbital elements
Apogee altitude
548.659 km
Perigee altitude
546.382 km
Semi-major axis
6,925.658 km
Eccentricity
0.00016
Inclination
53.0492°
RAAN
156.114°
Arg. of periapsis
87.3639°
True anomaly
272.73498°
Mean anomaly
272.7538°
Eccentric anomaly
272.74439°
Mean motion
3.76575 °/min
Orbital period
95.6 mins
BSTAR
0.00022947
Loading maneuver chart data...
Computing Atmospheric mass density...
Loading historical data...
Loading historical data...
Loading historical data...
Loading historical data...
Loading historical data...
Loading historical data...
Loading historical data...

Documentation

Showing up to 5 results
|